Current Version              Previous Version:    01  02  03  04  05  06  07  08  09  10  11  12  13  14  15  16  17  18  19  20  21  22  23  24  25  26  27  28  29  30  
   31  32  33  34  35  36  37  38  39  40  41  42  43  44  45  46  47  48  49  50  51  52  53  54  55  56  57  58  59  60  

[Printable]
135
ASUS44 KEWX 291702
RWRTX
SOUTH TEXAS REGIONAL WEATHER ROUNDUP
NATIONAL WEATHER SERVICE AUSTIN/SAN ANTONIO TX
1200 PM CDT TUE JUL 29 2014

NOTE: "FAIR" INDICATED FEW OR NO CLOUDS BELOW 12,000 FEET WITH NO
SIGNIFICANT WEATHER AND/OR OBSTRUCTIONS TO VISIBILITY.

* - THESE STATIONS ARE NOT NWS OR FAA STATIONS...AND ARE NOT SUBJECT
    TO NWS AND FAA QUALITY CONTROL.

TXZ171-172-183>190-291800-
TEXAS HILL COUNTRY AND EDWARDS PLATEAU

CITY           SKY/WX    TMP DP  RH WIND       PRES   REMARKS
JUNCTION       SUNNY     91  64  40 CALM      30.15F HX  92
*LLANO         SUNNY     90  70  51 E5        30.16F HX  95
BURNET         MOSUNNY   89  68  49 VRB5      30.16F HX  93
*HORSESHOE BAY SUNNY     91  65  42 E6        30.13S HX  93
*KERRVILLE     SUNNY     92  58  32 S8        30.15F HX  90
*FREDERICKSBRG SUNNY     91  57  32 S5        30.15F
*ROCKSPRINGS   SUNNY     88  59  37 SE12      30.21S
*BOERNE STAGE  SUNNY     90  55  31 S3        30.15S
*CASTROVILLE   SUNNY     91  62  37 S7        30.13S HX  91
HONDO          SUNNY     89  68  49 E5        30.13F HX  93
*UVALDE        SUNNY     91  67  45 SE3       30.12S HX  93
DEL RIO        SUNNY     91  66  43 VRB5      30.08F HX  93
LAUGHLIN AFB   SUNNY     91  68  47 SE8       30.09F HX  94
CARRIZO SPRGS  SUNNY     90  66  45 CALM      30.07F HX  92
$$

TXZ173-191>194-202-209-217>225-228-291800-
CENTRAL AND SOUTH CENTRAL TEXAS

CITY           SKY/WX    TMP DP  RH WIND       PRES   REMARKS
GEORGETOWN     SUNNY     88  73  62 NE6       30.13F HX  96
AUSTIN/BERGSTM MOSUNNY   91  67  44 VRB3      30.10F HX  94
AUSTIN/MABRY   SUNNY     91  71  51 VRB3      30.12S HX  97
*AUSTIN/EXEC   SUNNY     90  68  48 N6        30.12F HX  93
*LAGO VISTA    SUNNY     90  67  45 E6        30.15S HX  93
SAN MARCOS     SUNNY     93  64  38 N5        30.11F HX  95
NEW BRAUNFELS  SUNNY     93  62  35 CALM      30.09F HX  93
RANDOLPH AFB   SUNNY     92  63  37 SW9       30.11F HX  92
PT SAN ANTONIO SUNNY     90  66  44 SE5       30.10S HX  92
SAN ANTONIO    MOSUNNY   91  65  41 SE5       30.11S HX  93
STINSON FIELD  SUNNY     90  66  45 SW6       30.09S HX  92
*PLEASANTON    SUNNY     92  65  39 SE5       30.10F HX  94
*LA GRANGE     MOSUNNY   91  71  52 CALM      30.08F HX  97
*GIDDINGS      MOSUNNY   90  64  41 CALM      30.14F HX  91
*GONZALES      MOSUNNY   93  69  46 CALM      30.09F HX  98
$$

TXZ163>164-176>182-195>201-210>213-226-227-235-291800-
SOUTHEAST TEXAS

CITY           SKY/WX    TMP DP  RH WIND       PRES   REMARKS
COLLEGE STN    MOSUNNY   88  73  61 NE6       30.10F HX  95
*BRYAN         CLOUDY    83  73  72 E3        30.11F
*CALDWELL      MOSUNNY   84  72  65 CALM      30.14F
*CROCKETT      MOSUNNY   88  75  66 SE5       30.15S HX  97
*BRENHAM       MOSUNNY   88  68  50 NW3       30.11F HX  92
HUNTSVILLE     MOSUNNY   85  72  65 SE3       30.11F HX  91
CONROE         PTSUNNY   84  73  69 E5        30.11F HX  90
HOUSTON BUSH   CLOUDY    90  75  61 VRB5      30.08F HX 100
HOUSTON HOBBY  PTSUNNY   91  66  43 NW9       30.08F HX  93
*HOUSTON SW AP MOSUNNY   91  67  45 W6        30.09F HX  95
PEARLAND       MOSUNNY   91  67  44 NW8       30.09F HX  94
HOUSTON HOOKS  MOSUNNY   88  77  69 NW3       30.09F HX 100
ELLINGTON FLD  PTSUNNY   93  70  46 SW5       30.09F HX  99
SUGAR LAND     PTSUNNY   91  69  48 VRB6      30.09F HX  96
*HOUSTON EXEC  MOSUNNY   90  68  48 N8        30.10F HX  93
*CLEVELAND MUN MOSUNNY   82  76  82 CALM      30.12F
*WHARTON       SUNNY     91  71  51 W5        30.09F HX  97
$$

TXZ214>216-236>238-291800-
THE UPPER TEXAS COAST

CITY           SKY/WX    TMP DP  RH WIND       PRES   REMARKS
*ORANGE        PTSUNNY   86  73  65 CALM      30.11S HX  94
PORT ARTHUR    CLOUDY    81  76  84 SW3       30.10S
GALVESTON      SUNNY     89  75  63 VRB7      30.09F HX  99
ANGLETON       SUNNY     89  73  59 N6        30.08F HX  97
*BAY CITY      SUNNY     91  74  57 W5        30.09F HX 100
PALACIOS       SUNNY     87  75  67 SW8       30.10F HX  96
$$

TXZ229>234-239>247-291800-
TEXAS COASTAL BEND AND RIO GRANDE PLAINS

CITY           SKY/WX    TMP DP  RH WIND       PRES   REMARKS
VICTORIA       SUNNY     91  72  53 VRB3      30.09F HX  98
*BEEVILLE      SUNNY     92  69  45 S5        30.08F HX  97
ROCKPORT       SUNNY     89  73  59 SE10      30.08F HX  97
*PORT ARANSAS  SUNNY     85  76  75 S6        30.09S HX  95
*PORT LAVACA   SUNNY     89  71  54 CALM      30.09F HX  95
*INGLESIDE     SUNNY     91  71  51 S8        30.08F HX  98
CORPUS CHRISTI MOSUNNY   93  69  45 S10       30.07F HX  98
CORPUS NAS     MOSUNNY   90  76  63 S9        30.08F HX 101
*ROBSTOWN      NOT AVBL
ALICE          SUNNY     94  67  41 S9G17     30.07F HX  97
KINGSVILLE NAS MOSUNNY   95  72  47 S10G17    30.07F HX 103
COTULLA        SUNNY     91  65  41 S7        30.08F HX  93
*FAITH RANCH   SUNNY     88  68  51 S5        30.10R HX  91
LAREDO         SUNNY     95  68  41 S9        30.09F HX  99
$$

TXZ248>255-291800-
DEEP SOUTH TEXAS

CITY           SKY/WX    TMP DP  RH WIND       PRES   REMARKS
BROWNSVILLE    MOSUNNY   92  73  53 S13G20    30.07F HX 100
PORT ISABEL    SUNNY     94  69  44 S9        30.06F HX  99
*SOUTH PADRE   SUNNY     90  77  66 SE10      30.08F HX 102
HARLINGEN      MOSUNNY   94  72  48 S15       30.05F HX 102
*HEBBRONVILLE  SUNNY     91  65  42 SE9G17    30.09F HX  93
MCALLEN        MOSUNNY   94  72  48 SE14G22   30.06F HX 102
*WESLACO       MOSUNNY   93  69  44 SE7       30.06F HX  98
FALFURRIAS     SUNNY     86  62  44 S8        30.06F
EDINBURG       SUNNY     94  69  43 S14       30.07F HX  99
*ZAPATA        NOT AVBL
$$

TXZ213>215-236>238-242>244-246-247-251-254-255-291800-
CMAN STATIONS

STATION/POSITION TIME  TEMP    WIND        PRES    WAVE
                       AIR SEA DIR/SP/G            HT/PER
                 (UTC) (F)     (DEG/KT/KT) (MB)    (FT/S)
SABINE PASS      1600   81 87   30/  9/ 12 1019.5
SEA RIM ST PARK  1600   83     180/  4/  5 1019.5
NORTH JETTY/GLS  1600   87 88  300/  6/  8   N/A
EAGLE POINT      1600   88 88  310/  6/  9 1019.1
MORGANS POINT    1600   86 91  320/  4/  7 1018.9
MISSION/ARANSAS  1600   83     250/  3     1020.0
PORT O`CONNOR    1600           10/  5/  5   N/A
PORT ARANSAS     1600   80 81  170/  5/  6 1019.7
MALAQUITE BEACH  1600   80 75  130/  7/  7 1018.4
BAFFIN BAY       1600   84 83  140/  8/ 12 1018.7
PORT ISABEL      1600   86 81  150/ 10/ 13 1018.9
$$

GMZ080-GMZ150>470-291800-
OFFSHORE BUOY REPORTS

STATION/POSITION TIME  TEMP    WIND        PRES    WAVE
                       AIR SEA DIR/SP/G            HT/PER
                 (UTC) (F)     (DEG/KT/KT) (MB)    (FT/S)
90 E PT ARANSAS  1700   83 85  290/  2/  4 1019.8    2/ 5
35 NE PT MANSFLD 1600   82 85  180/  4/  6 1019.0    2/ 5
200 E PT ISABEL  1600   84 85  330/  4/  4 1019.5    1/ 5
$$